User: anonymous   Login
Location: Carnetin
(48.9010°N, 2.7059°E)
Time: 02:30:12
(UTC+00:00)
Language:

Cosmos 2219 Rocket - Orbit

View from above orbital plane
View from above orbital plane
View from above satellite
View from above satellite

Ground track
Ground track

The orbit data is extracted from the following two-line orbital elements,

1 22220U 92076B   22018.57219065  .00000245  00000-0  14693-3 0  9997
2 22220  71.0006 130.3843 0014899 242.8346 203.2565 14.16482338507821
Epoch (UTC): 18 January 2022 13:43:57
Eccentricity: 0.0014899
inclination: 71.0006°
perigee height: 826 km
apogee height: 848 km
right ascension of ascending node: 130.3843°
argument of perigee: 242.8346°
revolutions per day: 14.16482338
mean anomaly at epoch: 203.2565°
orbit number at epoch: 50782

The dashed part of the orbit path shows where the satellite is in the earth's shadow,  

DLR